sat.trackr.live / text

‹ back to catalog

STARLINK-37030

NORAD 68220 · 2026-053P

PAYLOAD ACTIVE UNKNOWN

§ Identity

Operator
Country
US
Launch date
2026-03-17
Launch site
AFWTR
Launch vehicle
Mass (kg)
RCS (m²)

Purposes: comms

External: N2YO · Heavens-Above · Gunter

§ Orbital elements

Epoch: 2026-09-19T09:19:10.108416Z

Period
93.90 min
Inclination
97.2854°
Eccentricity
0.0001286
Mean motion
15.33481228 rev/d
Perigee alt
464.6 km
Apogee alt
466.3 km
Semi-major
6,843.6 km
B*
3.7689e-4
RAAN
136.1891°
Arg perigee
100.7942°
Mean anomaly
259.3446°
Rev number
2,990

§ Raw data

STARLINK-370301 68220U 26053P   26262.38831144  .00012126  00000+0  37689-3 0  99912 68220  97.2854 136.1891 0001286 100.7942 259.3446 15.33481228 29904

JSON: /api/v1/satellites/68220 · /tle

For live sub-satellite position, see the globe view (requires WebGL).

§ Visibility from observer

Set your observer location to see the next 7 days of passes ≥ 10°. The values pass through the URL so the page stays shareable.

No JS? Fill the form by hand. The geolocation button needs JavaScript.